Location: Brompton
(51.4000°N, 0.5333°E)
Time: 04:20:51
(UTC+00:00)

USA 215 - Pass Details

Date: 04 October 2021
Orbit: 1093 x 1114 km, 123.0° (Epoch: 14 October)

Event Time Altitude Azimuth Distance (km) Brightness Sun altitude
Exits shadow 21:26:04 44° 249° (WSW) 1,489 4.0 -34.9°
Drops below altitude 10° 21:31:16 10° 296° (WNW) 2,964 6.2 -35.5°
Sets 21:33:53 0° 302° (WNW) 3,928 7.1 -35.8°
